{"data":{"norad_id":64153,"intl_designator":"2025-112H","name":"STARLINK-34345","alt_names":[],"object_type":"PAYLOAD","status":"ACTIVE","operator":null,"country":"US","launch_date":"2025-05-27","launch_site_code":"AFWTR","launch_vehicle":null,"mission":null,"orbit_class":"UNKNOWN","rcs_meters":null,"size_class":null,"mass_kg":null,"dimensions":null,"purposes":["comms"],"wikipedia_slug":null,"has_3d_model":false,"image_url":null,"decayed_at":null,"tle_current":{"epoch":"2026-09-20T20:36:52.411680Z","epoch_age_seconds":109326,"freshness":"FRESH","line1":"1 64153U 25112H   26263.85893995  .00012789  00000+0  39766-3 0  9995","line2":"2 64153  97.2804 310.9250 0000591 272.9236  87.1939 15.33456821 72809","mean_motion":15.33456821,"eccentricity":5.91e-5,"inclination_deg":97.2804,"raan_deg":310.925,"arg_perigee_deg":272.9236,"mean_anomaly_deg":87.1939,"bstar":0.00039766,"rev_number":7280,"period_min":93.905480759539,"perigee_km":465.10354430513,"apogee_km":465.91246314457,"semimajor_km":6843.6450037248,"source":"CELESTRAK","updated_at":"2026-09-21T09:00:35.239008Z"}}}